Main page
METAR-TAF:

METAR-TAF

Airports :

Hill City Municipal Airport

Hill City, Kansas, United States

latitude: 39-22-29N, longitude: 099-49-47W, elevation: 2224 ft

Current weather observation

The report was made 49 minutes ago, at 21:53 UTC
Wind 7 mph from the North/Northwest
Temperature 73°F
Humidity 41%
Pressure 29.90 in. Hg
Visibility: 10 miles
Clear sky

METAR: KHLC 262153Z AUTO 33006KT 10SM CLR 23/09 A2990 RMK AO2 SLP114 T02280089

Time: 17:42 (22:42 UTC)


TAF: missing

Weather observations and forecasts of more than 4000 airports (METAR and TAF reports).

The available stations are represented by yellow and red dots on the map.

Hover mouse over dot to see the name of the station.

Then click to see weather observations and forecasts.

To change the map : click on the green buttons with a black cross to zoom in, on the green button with a dash to zoom out, or on the green arrows for adjacent maps.


METAR-TAF: